Temperature
26 27 27 26 26 26 26 25 25 25 25 26 26 26 27 27 27 26 26 25 24 23 22 21 20 20 19 19 18 17 17 16 16 16 16 15 15 15 15 15 14 14 14 14
25 26 27 26 27 26 26 26 26 25 25 26 27 27 26 26 26 26 25 25 24 23 22 21 20 20 19 19 18 17 17 17 16 16 16 16 15 15 15 15 15 14 14 14
24 25 26 25 26 27 26 26 26 25 25 26 26 26 26 26 25 25 25 24 24 24 23 22 21 20 20 19 18 18 17 17 17 16 16 16 15 15 15 15 15 15 15 14
24 24 23 25 28 27 26 26 26 26 25 25 25 26 25 25 25 24 24 24 24 23 23 23 22 21 20 20 19 18 17 17 17 16 16 16 15 15 15 15 15 15 15 14
23 22 23 25 26 27 26 25 26 25 25 25 25 25 25 24 24 24 24 24 23 23 23 23 23 22 21 20 19 18 18 18 17 17 16 16 16 16 16 15 15 15 15 14
23 22 22 24 26 26 25 23 25 24 24 24 24 23 23 23 23 23 23 23 23 23 23 23 23 22 22 21 20 19 18 18 17 17 16 16 16 16 15 15 15 15 15 14
22 22 23 24 25 25 23 22 23 23 22 22 22 22 22 22 22 22 22 22 22 22 22 23 23 22 22 21 20 19 19 18 17 17 17 16 16 16 15 15 15 15 14 14
22 22 22 23 23 22 22 22 22 21 21 21 20 21 21 21 21 21 21 21 21 21 21 22 22 22 21 21 21 20 19 18 18 17 17 16 16 16 15 15 15 14 14 14
22 22 23 22 22 21 21 21 20 20 19 19 19 19 20 20 20 20 21 21 21 21 21 21 21 21 21 21 20 20 19 18 18 17 17 16 16 16 15 15 15 14 14 14
21 22 22 21 21 20 19 19 19 18 18 18 18 18 18 19 19 19 20 20 20 20 20 20 20 20 20 20 20 20 19 18 18 17 16 16 16 15 15 15 15 14 14 14
19 20 20 20 19 18 18 17 17 17 17 17 17 17 17 17 18 18 18 19 19 19 19 19 19 19 20 20 19 19 18 18 17 17 16 16 16 15 15 15 15 14 14 14
18 19 18 18 17 17 16 16 16 16 16 16 16 16 16 16 17 17 17 18 18 18 19 19 19 19 19 19 19 18 18 17 17 16 16 16 16 15 15 15 14 14 14 14
17 17 16 16 16 15 15 15 15 15 15 15 15 15 15 15 15 16 16 16 17 17 18 18 18 18 19 19 18 18 18 17 17 17 16 16 16 15 15 14 14 14 14 13
16 15 15 15 15 14 14 14 14 14 14 14 14 14 14 14 14 14 15 15 15 16 16 17 17 18 18 18 18 18 18 17 17 17 16 16 15 15 15 15 14 14 13 13
15 14 14 14 14 13 13 13 13 13 13 13 13 13 13 13 13 13 13 14 14 15 15 16 16 17 17 17 18 17 17 17 17 17 16 15 15 15 14 14 14 13 13 12
13 13 13 13 13 12 12 12 12 12 12 12 12 11 12 12 12 12 12 13 13 14 14 15 15 16 16 17 17 17 17 17 17 16 16 15 14 14 13 13 13 13 12 12
12 12 12 12 12 11 11 11 11 11 11 11 11 10 11 11 11 11 11 12 12 13 13 14 14 15 15 16 16 16 16 16 16 16 15 15 14 13 13 13 12 12 12 11
12 11 11 11 11 10 10 10 10 10 10 10 10 10 10 10 10 10 11 11 11 12 12 12 13 13 14 14 15 15 15 15 15 15 14 14 13 13 13 12 12 12 11 10
11 10 10 10 10 10 9 9 9 9 9 9 9 9 9 9 10 10 10 10 10 11 11 11 12 13 13 13 14 14 15 15 14 14 14 13 13 12 12 12 11 11 11 10
10 10 9 9 9 9 9 9 9 9 9 9 8 8 9 9 9 9 9 9 9 10 10 10 11 12 12 12 12 13 13 14 13 13 13 12 12 12 11 11 11 10 10 9
9 9 9 9 9 9 8 8 8 8 8 8 8 8 8 8 8 8 8 9 9 9 9 10 10 10 11 11 11 12 12 12 12 12 12 12 11 11 11 10 10 9 9 8
9 9 8 8 8 8 8 8 8 8 8 8 8 8 8 8 8 8 8 8 8 8 9 9 9 9 9 10 10 10 11 11 11 11 11 11 11 10 10 9 9 8 8 8
8 8 8 8 8 8 8 8 8 8 8 8 8 7 7 7 7 7 7 7 8 8 8 8 8 8 9 9 9 9 10 10 10 10 10 10 10 9 9 9 8 8 7 7
8 8 8 8 8 8 8 8 8 8 7 7 7 7 7 7 7 7 7 7 7 7 7 7 7 8 8 8 8 8 8 8 9 9 9 9 8 8 8 8 7 7 7 6
7 7 7 7 7 7 7 7 7 7 7 7 7 7 7 7 6 6 6 6 6 6 7 7 7 7 7 7 7 7 7 7 7 8 8 7 7 7 7 7 6 6 6 5
7 7 7 7 7 7 7 7 7 7 7 7 6 6 6 6 6 6 6 6 6 6 6 6 6 6 6 6 6 6 6 6 6 7 7 6 6 6 6 6 5 5 5 5
7 7 7 7 7 7 7 7 7 7 7 6 6 6 6 6 6 6 6 5 5 5 5 5 5 5 5 5 5 5 5 5 6 6 6 5 5 5 5 5 5 5 4 4
Wind_Speed
14 12 11 12 12 12 13 13 14 15 14 11 10 8 7 6 4 5 6 8 9 11 11 11 11 11 10 10 10 10 10 9 8 7 7 6 5 5 4 3 3 2 1 1
15 15 15 16 15 15 15 14 14 13 11 9 9 7 7 7 6 4 5 6 8 10 12 12 13 12 11 11 11 10 10 10 8 7 7 7 5 5 4 3 3 2 2 3
15 16 17 15 13 12 10 8 9 9 8 8 9 8 7 7 6 5 4 4 6 8 10 12 14 14 12 12 11 11 10 10 9 8 7 7 7 6 5 5 5 5 4 4
13 15 17 10 7 5 5 7 7 7 7 8 8 7 4 5 6 5 4 3 5 6 8 10 12 13 13 12 12 12 11 10 10 9 8 8 7 6 5 5 5 5 5 5
11 13 13 10 8 7 6 5 6 6 7 9 10 8 4 8 8 7 5 3 3 5 6 8 10 12 13 13 12 12 11 11 11 11 9 9 8 7 6 5 4 3 4 5
10 13 12 7 7 6 5 4 7 8 9 10 10 7 7 11 10 9 6 4 3 3 4 6 8 10 12 13 13 12 12 11 11 11 10 9 8 7 5 5 5 4 4 4
11 14 10 6 6 4 4 5 10 11 11 12 10 9 10 12 11 9 6 5 4 3 3 4 5 8 11 11 12 12 11 10 9 10 10 9 7 6 4 5 5 4 4 3
10 12 6 9 7 6 7 9 10 11 11 12 12 13 12 12 11 10 8 5 4 3 3 3 3 6 9 10 10 10 11 10 9 9 9 8 8 6 5 5 4 5 4 3
7 6 5 6 7 8 9 10 10 11 11 12 13 13 13 12 11 10 8 6 4 4 4 4 3 5 7 8 9 10 11 11 9 9 8 8 8 7 5 5 4 4 3 2
12 10 12 11 8 8 10 12 12 11 12 13 13 14 13 12 11 10 8 7 5 5 5 5 5 5 5 6 9 10 11 11 10 9 8 8 6 5 4 4 3 3 2 2
17 15 14 10 10 11 12 13 14 14 13 13 14 14 13 12 12 10 9 7 6 6 6 6 6 6 6 6 9 10 11 11 10 9 9 8 6 3 5 3 3 3 2 3
14 13 12 13 14 14 14 14 15 15 15 14 13 13 13 13 11 10 10 9 8 7 7 7 7 7 7 8 9 10 11 11 9 9 8 8 8 6 9 7 9 9 8 7
13 13 13 15 15 14 14 15 15 14 14 14 13 12 13 12 11 11 11 11 11 9 8 8 8 7 7 8 9 10 10 11 9 9 10 10 10 10 7 5 8 9 9 10
12 12 14 13 13 13 14 15 15 15 14 13 12 12 12 12 12 12 12 12 12 11 9 9 8 8 7 8 9 10 10 11 11 10 10 10 11 10 10 10 7 4 4 7
11 11 12 12 12 13 13 13 14 13 13 13 12 12 12 13 13 13 12 12 12 12 11 9 9 8 6 7 9 10 8 8 9 10 10 10 10 10 10 11 9 8 6 5
11 11 12 12 12 12 13 13 13 13 13 13 13 13 14 14 13 13 12 12 12 13 12 10 9 8 6 6 8 8 7 12 11 10 10 10 10 9 9 10 10 10 9 8
9 10 11 12 12 12 12 12 12 13 13 14 14 14 15 14 13 13 13 12 12 12 12 10 9 7 7 6 6 6 6 9 13 10 9 10 10 9 9 9 9 9 8 9
7 9 10 11 11 12 12 12 12 13 13 13 14 14 14 14 14 13 14 14 14 13 11 10 8 7 7 7 6 5 6 7 8 9 8 9 9 9 9 9 10 10 8 8
8 9 10 11 11 11 12 12 12 13 13 13 14 14 14 14 13 13 13 14 14 13 11 10 9 8 8 8 6 5 6 8 8 8 8 10 10 9 9 9 10 10 10 9
9 9 10 11 11 11 11 12 13 12 12 13 14 14 14 14 14 14 13 12 10 9 10 10 9 8 8 7 6 5 7 8 9 9 8 9 9 9 9 10 10 11 10 9
9 10 10 11 11 12 12 12 12 12 12 12 13 13 14 14 14 14 12 11 10 9 9 10 7 7 5 5 6 4 5 7 8 9 9 9 9 9 10 10 10 10 10 9
10 10 11 11 12 13 12 13 13 13 12 12 12 13 13 13 13 13 13 10 9 10 8 6 6 6 5 4 4 4 4 5 6 7 8 9 9 10 10 10 10 10 9 9
11 12 12 13 14 14 15 14 14 13 12 12 12 12 12 11 10 10 11 9 8 9 7 6 7 7 5 4 4 3 4 5 5 6 7 8 8 9 9 10 9 9 9 9
13 13 14 14 15 16 16 15 13 11 11 12 11 11 11 10 9 8 8 10 10 9 7 6 6 5 4 3 3 3 4 4 5 6 7 7 7 8 8 9 9 9 9 10
14 14 15 15 14 12 13 13 13 11 11 9 10 11 9 7 8 8 8 8 9 8 5 5 5 4 3 3 3 3 3 4 5 7 7 8 8 8 8 9 9 9 8 8
13 12 12 13 12 10 10 10 9 8 8 8 8 8 8 6 7 7 6 6 7 7 4 2 2 3 3 2 3 3 4 6 7 7 8 8 9 9 9 9 11 9 8 8
13 12 10 10 9 9 9 8 8 8 8 8 9 8 8 7 6 6 6 5 5 4 3 2 2 2 2 2 3 4 4 6 6 7 8 8 8 8 9 10 9 8 8 8
Wind_Direction
295 294 289 285 280 274 269 270 276 284 291 304 310 311 307 295 266 231 208 194 188 182 184 183 185 188 189 180 172 174 174 186 197 197 175 174 169 180 202 202 241 253 278 265
290 289 284 279 274 269 267 268 274 282 289 305 306 317 319 312 301 265 229 213 203 192 189 188 190 191 190 180 176 177 180 186 189 190 170 167 173 185 193 196 242 262 266 266
289 295 295 281 278 276 279 289 294 295 306 322 324 322 320 321 315 301 267 241 218 208 196 194 195 191 189 183 178 182 186 183 178 181 172 172 186 187 189 203 218 228 243 256
286 290 281 285 302 305 292 292 301 308 329 333 325 314 321 336 328 315 292 258 233 223 206 195 195 187 182 177 178 184 187 182 175 177 176 177 186 189 195 216 214 207 226 243
275 277 278 288 302 305 296 304 334 334 345 348 338 324 6 12 358 342 328 304 258 236 217 202 196 184 177 178 182 185 185 181 175 175 176 179 186 192 202 213 218 219 225 231
264 273 279 302 343 358 323 302 10 10 5 355 353 343 351 356 351 342 338 330 303 269 241 213 199 180 176 180 183 185 182 181 178 175 173 179 186 192 196 198 207 216 233 231
259 267 274 338 358 340 296 2 19 14 7 4 357 346 339 342 343 340 337 328 318 286 269 234 197 177 179 184 187 181 172 174 173 168 169 174 179 181 188 195 198 209 227 223
270 269 280 29 13 10 5 5 8 7 1 354 344 338 338 337 335 332 329 322 314 295 283 265 207 181 186 191 181 164 160 165 168 166 172 175 169 178 189 187 194 208 219 214
297 307 347 17 6 6 359 349 355 352 349 342 334 331 330 328 327 324 321 314 306 287 273 262 234 199 196 189 165 155 157 164 168 168 168 163 166 176 184 185 192 201 192 185
297 296 316 327 340 354 352 344 341 340 338 334 328 325 324 322 321 321 320 317 300 283 266 257 245 223 206 178 161 159 164 169 171 174 168 161 159 166 167 173 180 181 165 151
293 299 307 315 336 342 339 335 331 329 326 323 321 319 319 318 319 319 316 310 301 281 264 255 248 228 208 187 176 176 176 176 179 175 167 159 140 126 147 123 141 145 127 110
285 305 309 316 330 332 326 323 322 321 318 316 315 315 317 316 316 316 315 311 304 292 275 260 250 238 212 194 189 190 188 183 180 174 165 155 141 107 68 101 102 100 102 112
294 306 307 310 316 320 317 315 315 313 311 311 314 316 314 312 313 314 314 313 307 298 288 276 256 242 221 199 197 200 196 184 178 175 169 163 160 155 142 97 81 92 101 109
302 306 301 306 311 316 313 312 311 309 309 312 315 315 313 314 314 314 312 311 307 302 293 286 272 251 228 206 201 206 202 189 179 174 171 170 170 168 164 161 157 142 121 132
300 302 302 307 307 307 309 310 309 310 314 317 317 314 316 316 312 310 309 309 308 304 298 290 282 267 240 214 205 207 204 190 179 173 171 172 170 169 168 168 162 154 147 153
304 305 305 304 304 306 309 311 311 311 315 317 318 319 318 314 310 307 306 307 305 302 300 294 287 281 261 224 208 207 206 190 176 170 170 170 170 170 169 167 163 162 165 165
294 296 300 301 303 306 308 311 312 314 315 315 315 314 311 309 308 309 309 306 302 298 297 295 293 294 281 244 216 206 197 185 177 174 176 175 174 173 170 166 164 160 155 157
300 300 302 303 306 307 307 309 312 313 311 311 311 311 310 311 310 310 311 311 307 302 298 298 301 300 288 264 231 206 190 181 181 181 177 174 172 170 166 164 158 146 141 146
294 296 298 300 304 304 304 307 310 310 311 311 311 310 308 308 308 308 309 307 304 302 302 305 303 300 288 275 253 210 190 183 183 181 172 169 168 165 162 159 153 150 151 154
291 294 295 297 299 301 304 305 305 304 307 310 309 307 306 307 307 305 303 298 294 295 300 301 298 289 278 273 259 223 195 186 182 177 169 169 169 164 160 156 153 153 155 158
291 290 293 297 300 301 300 300 301 302 304 305 304 304 303 304 304 303 300 297 296 302 301 292 286 283 274 271 263 235 202 189 182 176 171 169 167 162 159 156 154 154 155 154
291 291 294 297 298 298 297 297 298 298 296 295 297 300 301 301 302 302 296 292 293 298 298 287 285 282 277 267 259 234 203 189 179 169 166 166 164 161 159 156 154 152 150 147
286 288 290 292 294 296 295 294 293 296 296 296 297 298 298 296 296 295 297 300 301 301 295 281 282 279 269 256 246 229 200 185 174 163 159 157 157 155 153 149 147 144 142 140
283 285 288 291 292 291 291 293 295 296 295 294 292 292 293 293 291 290 294 299 306 302 293 281 274 264 252 244 225 208 193 175 162 154 148 144 144 143 142 142 139 136 136 134
286 286 286 288 289 289 290 293 295 294 292 290 291 292 289 284 286 291 293 296 300 297 293 282 269 250 246 238 208 187 173 161 152 146 143 140 138 138 137 135 133 133 134 135
284 285 285 285 285 284 286 287 287 286 288 289 291 291 291 287 287 289 287 289 288 284 285 282 253 230 234 220 191 172 163 157 152 145 143 141 139 138 138 139 137 138 137 135
283 281 280 280 281 282 285 286 287 288 288 289 292 295 297 295 293 295 295 290 280 269 263 248 239 236 224 193 176 170 160 150 146 145 144 142 140 140 142 141 139 136 134 134
Height
1468 1464 1464 1466 1466 1466 1469 1470 1475 1470 1466 1460 1456 1454 1453 1453 1453 1454 1455 1457 1458 1460 1463 1465 1468 1471 1473 1475 1477 1479 1481 1483 1485 1487 1489 1490 1491 1492 1492 1493 1493 1494 1494 1494
1471 1464 1462 1463 1460 1459 1461 1460 1462 1461 1461 1454 1452 1451 1451 1451 1451 1451 1451 1453 1454 1456 1458 1460 1463 1466 1469 1471 1473 1475 1478 1480 1482 1484 1486 1487 1488 1489 1490 1491 1491 1492 1492 1492
1477 1466 1464 1467 1456 1454 1454 1453 1456 1461 1458 1451 1451 1450 1450 1449 1449 1449 1449 1449 1450 1451 1453 1455 1457 1460 1463 1466 1469 1472 1474 1476 1478 1481 1482 1484 1485 1487 1487 1488 1489 1489 1490 1490
1476 1474 1483 1461 1446 1447 1450 1451 1451 1451 1451 1450 1450 1449 1448 1448 1448 1446 1446 1446 1446 1447 1448 1450 1453 1456 1459 1462 1465 1467 1470 1472 1474 1477 1479 1480 1482 1483 1484 1485 1486 1487 1487 1487
1477 1479 1470 1456 1448 1446 1450 1452 1450 1450 1450 1450 1449 1447 1447 1447 1447 1446 1444 1443 1443 1443 1444 1446 1449 1451 1454 1457 1460 1463 1465 1468 1470 1472 1474 1476 1478 1480 1481 1482 1483 1483 1484 1484
1474 1479 1478 1461 1449 1446 1450 1457 1452 1451 1452 1452 1450 1452 1450 1448 1446 1444 1443 1442 1441 1440 1441 1442 1444 1447 1449 1452 1455 1458 1460 1463 1466 1468 1470 1472 1474 1476 1478 1479 1479 1480 1480 1480
1473 1473 1464 1454 1450 1449 1462 1464 1456 1455 1456 1455 1455 1455 1453 1449 1447 1444 1442 1440 1439 1438 1438 1439 1441 1443 1445 1447 1450 1453 1456 1459 1462 1464 1466 1468 1470 1472 1474 1475 1476 1476 1477 1477
1465 1469 1467 1456 1454 1459 1462 1459 1458 1458 1458 1458 1457 1454 1452 1449 1447 1444 1441 1439 1438 1436 1436 1436 1437 1439 1441 1443 1446 1449 1451 1454 1457 1460 1462 1464 1466 1468 1469 1471 1472 1473 1473 1473
1463 1464 1459 1458 1460 1461 1461 1460 1460 1460 1459 1458 1456 1454 1451 1449 1446 1443 1440 1438 1436 1435 1434 1434 1434 1435 1436 1439 1442 1444 1446 1449 1452 1455 1457 1459 1461 1463 1465 1467 1468 1469 1469 1470
1461 1457 1457 1458 1459 1460 1461 1461 1460 1459 1458 1457 1455 1452 1450 1447 1444 1441 1438 1436 1434 1432 1431 1431 1431 1432 1433 1435 1437 1439 1441 1444 1447 1450 1452 1455 1456 1458 1460 1462 1463 1464 1465 1466
1464 1461 1459 1459 1460 1460 1460 1459 1459 1458 1457 1455 1453 1450 1447 1444 1441 1438 1435 1433 1431 1430 1428 1427 1427 1428 1429 1430 1432 1434 1436 1438 1441 1444 1447 1449 1451 1453 1455 1457 1459 1460 1461 1462
1464 1463 1462 1460 1460 1459 1458 1457 1457 1455 1453 1452 1450 1447 1444 1441 1438 1435 1432 1429 1427 1425 1424 1423 1423 1423 1423 1425 1426 1428 1430 1433 1435 1438 1441 1443 1445 1448 1450 1452 1454 1455 1457 1457
1462 1461 1460 1459 1459 1458 1457 1455 1454 1452 1450 1448 1445 1443 1440 1437 1434 1431 1428 1426 1423 1421 1419 1418 1418 1417 1417 1418 1420 1422 1424 1426 1429 1431 1434 1436 1438 1441 1444 1447 1449 1450 1452 1453
1459 1459 1457 1457 1456 1455 1453 1452 1450 1448 1446 1444 1441 1439 1436 1433 1430 1427 1424 1422 1419 1416 1414 1412 1411 1411 1411 1412 1413 1415 1418 1420 1422 1424 1427 1429 1432 1435 1438 1440 1443 1444 1447 1448
1456 1455 1454 1453 1452 1451 1450 1448 1446 1444 1442 1440 1437 1434 1431 1428 1425 1422 1419 1417 1414 1411 1409 1407 1405 1404 1405 1406 1406 1408 1411 1413 1415 1418 1420 1423 1426 1429 1432 1435 1437 1439 1441 1444
1452 1452 1451 1450 1449 1448 1446 1445 1443 1441 1438 1436 1433 1430 1427 1424 1421 1417 1414 1412 1409 1406 1403 1401 1399 1398 1398 1399 1399 1401 1403 1406 1408 1411 1413 1417 1420 1423 1426 1429 1431 1433 1436 1438
1449 1448 1448 1447 1446 1444 1443 1441 1440 1437 1435 1432 1429 1426 1423 1419 1416 1412 1409 1406 1403 1400 1398 1395 1393 1392 1391 1392 1393 1393 1395 1398 1401 1404 1407 1410 1413 1416 1420 1423 1425 1428 1431 1433
1445 1445 1445 1444 1442 1441 1439 1437 1435 1433 1431 1428 1425 1422 1418 1415 1411 1407 1404 1400 1397 1394 1391 1389 1387 1385 1384 1385 1386 1387 1388 1390 1393 1396 1400 1403 1407 1410 1414 1417 1420 1423 1425 1429
1442 1442 1441 1440 1439 1437 1435 1433 1431 1429 1426 1423 1420 1417 1413 1410 1406 1403 1399 1395 1391 1388 1385 1383 1381 1379 1378 1378 1379 1380 1381 1384 1386 1390 1394 1398 1401 1405 1408 1411 1414 1417 1420 1424
1439 1438 1437 1436 1435 1433 1431 1428 1426 1424 1421 1418 1415 1411 1408 1404 1401 1398 1394 1390 1386 1383 1379 1377 1374 1372 1371 1372 1373 1373 1375 1377 1380 1383 1387 1391 1395 1398 1402 1406 1409 1412 1416 1420
1435 1434 1433 1432 1430 1428 1426 1424 1421 1418 1415 1412 1409 1406 1402 1399 1396 1392 1388 1383 1379 1376 1373 1370 1368 1366 1365 1365 1367 1368 1369 1371 1374 1377 1380 1385 1389 1393 1396 1400 1404 1407 1411 1415
1432 1430 1428 1427 1425 1423 1421 1418 1416 1412 1409 1406 1403 1400 1396 1393 1389 1385 1381 1378 1373 1370 1366 1364 1362 1360 1360 1360 1361 1362 1363 1365 1368 1371 1375 1379 1383 1387 1391 1395 1399 1403 1407 1411
1427 1425 1424 1422 1419 1417 1414 1412 1409 1406 1403 1400 1397 1393 1390 1386 1383 1379 1374 1371 1368 1364 1360 1358 1356 1355 1354 1354 1355 1357 1359 1361 1363 1366 1370 1373 1378 1382 1386 1390 1395 1399 1403 1407
1421 1420 1418 1415 1413 1410 1407 1405 1402 1399 1396 1393 1390 1387 1384 1380 1376 1373 1369 1365 1361 1358 1355 1352 1351 1350 1349 1350 1351 1352 1354 1357 1359 1362 1366 1370 1374 1379 1383 1387 1391 1395 1400 1404
1415 1413 1411 1409 1406 1403 1401 1398 1395 1392 1389 1386 1383 1380 1377 1374 1370 1366 1363 1359 1356 1353 1350 1348 1346 1346 1345 1346 1347 1348 1350 1353 1356 1359 1363 1367 1371 1375 1380 1384 1388 1392 1396 1400
1408 1406 1404 1402 1399 1397 1394 1392 1388 1385 1383 1380 1376 1374 1371 1368 1364 1360 1357 1354 1351 1348 1346 1344 1342 1342 1342 1343 1344 1345 1347 1350 1353 1357 1360 1364 1369 1373 1377 1381 1385 1389 1393 1397
1401 1399 1397 1394 1392 1390 1388 1385 1383 1380 1377 1374 1371 1368 1365 1362 1358 1355 1352 1349 1347 1344 1342 1340 1339 1339 1339 1340 1341 1343 1345 1348 1351 1354 1358 1362 1366 1370 1375 1379 1383 1387 1391 1395